SL-12 DEB

基本信息
目录编号:
41704
目录名称:
SL-12 DEB
国际标识:
2010-007W
轨道中心:
EARTH
物体状态:
在轨
发射日期:
2010-03-01 UTC
轨道信息
数据来源: 国际轨道数据
星历时间: 2024-07-10T08:53:34+0800
半长轴: 15841.079km
偏心率: 0.540233
轨道倾角: 65.101°
近地点辐角: 307.827°
升交点赤经: 97.785°
平近点角: 14.546°
近地点: 905.07km
远地点: 18020.818km
周期: 330.702分钟
每日圈数: 4.354373
详细信息
发射场:
TTMTR
轨道高度:
LEO
数据来源:
AOE Integration Group
参考系:
TEME
时间系统:
UTC
历元类型:
SGP4
2D轨道图
3D轨道图
轨道高度分析图
轨道倾角分析图
轨道综合分析图
查看轨道综合分析图